Year,Month,Day,Hour,Minute,Value (Times are PST for temperature in C)
2015,03,23,10,03,7.10
2015,03,23,10,04,7.10
2015,03,23,10,05,7.20
2015,03,23,10,06,7.20
2015,03,23,10,07,7.20
2015,03,23,10,08,7.20
2015,03,23,10,09,7.20
2015,03,23,10,10,7.20
2015,03,23,10,11,7.30
2015,03,23,10,12,7.30
2015,03,23,10,13,7.40
2015,03,23,10,14,7.40
2015,03,23,10,15,7.40
2015,03,23,10,16,7.40
2015,03,23,10,17,7.50
2015,03,23,10,18,7.50
2015,03,23,10,19,7.60
2015,03,23,10,20,7.70
2015,03,23,10,21,7.80
2015,03,23,10,22,7.80
2015,03,23,10,23,7.90
2015,03,23,10,24,8.00
2015,03,23,10,25,8.00
2015,03,23,10,26,8.00
2015,03,23,10,27,8.00
2015,03,23,10,28,8.00
2015,03,23,10,29,8.00
2015,03,23,10,30,8.00
2015,03,23,10,31,8.10
2015,03,23,10,32,8.10
2015,03,23,10,33,8.00
2015,03,23,10,34,8.10
2015,03,23,10,35,8.10
2015,03,23,10,36,8.10
2015,03,23,10,37,8.10
2015,03,23,10,38,8.10
2015,03,23,10,39,8.20
2015,03,23,10,40,8.20
2015,03,23,10,41,8.30
2015,03,23,10,42,8.30
2015,03,23,10,43,8.30
2015,03,23,10,44,8.30
2015,03,23,10,45,8.30
2015,03,23,10,46,8.30
2015,03,23,10,47,8.30
2015,03,23,10,48,8.30
2015,03,23,10,49,8.40
2015,03,23,10,50,8.40
2015,03,23,10,51,8.40
2015,03,23,10,52,8.40
2015,03,23,10,53,8.50
2015,03,23,10,54,8.50
2015,03,23,10,55,8.60
2015,03,23,10,56,8.60
2015,03,23,10,57,8.70
2015,03,23,10,58,8.70
2015,03,23,10,59,8.80
2015,03,23,11,00,8.80
2015,03,23,11,01,8.80
2015,03,23,11,02,8.90
2015,03,23,11,03,8.90
2015,03,23,11,04,8.90
2015,03,23,11,05,8.90
2015,03,23,11,06,8.80
2015,03,23,11,07,8.70
2015,03,23,11,08,8.60
2015,03,23,11,09,8.50
2015,03,23,11,10,8.50
2015,03,23,11,11,8.40
2015,03,23,11,12,8.30
2015,03,23,11,13,8.20
2015,03,23,11,14,8.20
2015,03,23,11,15,8.20
2015,03,23,11,16,8.20
2015,03,23,11,17,8.20
2015,03,23,11,18,8.10
2015,03,23,11,19,8.20
2015,03,23,11,20,8.20
2015,03,23,11,21,8.20
2015,03,23,11,22,8.20
2015,03,23,11,23,8.20
2015,03,23,11,24,8.20
2015,03,23,11,25,8.20
2015,03,23,11,26,8.20
2015,03,23,11,27,8.30
2015,03,23,11,28,8.30
2015,03,23,11,29,8.40
2015,03,23,11,30,8.40
2015,03,23,11,31,8.50
2015,03,23,11,32,8.50
2015,03,23,11,33,8.50
2015,03,23,11,34,8.50
2015,03,23,11,35,8.60
2015,03,23,11,36,8.60
2015,03,23,11,37,8.50
2015,03,23,11,38,8.50
2015,03,23,11,39,8.50
2015,03,23,11,40,8.50
2015,03,23,11,41,8.60
2015,03,23,11,42,8.70
2015,03,23,11,43,8.80
2015,03,23,11,44,8.80
2015,03,23,11,45,8.80
2015,03,23,11,46,8.90
2015,03,23,11,47,8.90
2015,03,23,11,48,9.00
2015,03,23,11,49,9.10
2015,03,23,11,50,9.10
2015,03,23,11,51,9.20
2015,03,23,11,52,9.20
2015,03,23,11,53,9.20
2015,03,23,11,54,9.20
2015,03,23,11,55,9.30
2015,03,23,11,56,9.30
2015,03,23,11,57,9.40
2015,03,23,11,58,9.40
2015,03,23,11,59,9.40
2015,03,23,12,00,9.50
2015,03,23,12,01,9.50
2015,03,23,12,02,9.60
2015,03,23,12,03,9.60
2015,03,23,12,04,9.70
2015,03,23,12,05,9.80
2015,03,23,12,06,9.90
2015,03,23,12,07,9.90
2015,03,23,12,08,9.90
2015,03,23,12,09,9.90
2015,03,23,12,10,9.90
2015,03,23,12,11,9.90
2015,03,23,12,12,9.80
2015,03,23,12,13,9.80
2015,03,23,12,14,9.80
2015,03,23,12,15,9.70
2015,03,23,12,16,9.80
2015,03,23,12,17,9.80
2015,03,23,12,18,9.90
2015,03,23,12,19,9.90
2015,03,23,12,20,9.90
2015,03,23,12,21,9.90
2015,03,23,12,22,9.90
2015,03,23,12,23,9.90
2015,03,23,12,24,9.90
2015,03,23,12,25,9.90
2015,03,23,12,26,10.00
2015,03,23,12,27,10.10
2015,03,23,12,28,10.20
2015,03,23,12,29,10.20
2015,03,23,12,30,10.20
2015,03,23,12,31,10.30
2015,03,23,12,32,10.40
2015,03,23,12,33,10.50
2015,03,23,12,34,10.50
2015,03,23,12,35,10.40
2015,03,23,12,36,10.40
2015,03,23,12,37,10.40
2015,03,23,12,38,10.40
2015,03,23,12,39,10.50
2015,03,23,12,40,10.60
2015,03,23,12,41,10.60
2015,03,23,12,42,10.60
2015,03,23,12,43,10.60
2015,03,23,12,44,10.60
2015,03,23,12,45,10.60
2015,03,23,12,46,10.50
2015,03,23,12,47,10.50
2015,03,23,12,48,10.50
2015,03,23,12,49,10.50
2015,03,23,12,50,10.50
2015,03,23,12,51,10.60
2015,03,23,12,52,10.60
2015,03,23,12,53,10.60
2015,03,23,12,54,10.70
2015,03,23,12,55,10.60
2015,03,23,12,56,10.50
2015,03,23,12,57,10.30
2015,03,23,12,58,10.20
2015,03,23,12,59,10.10
2015,03,23,13,00,10.10
2015,03,23,13,01,10.10
2015,03,23,13,02,10.10
2015,03,23,13,03,10.10
2015,03,23,13,04,10.00
2015,03,23,13,05,10.00
2015,03,23,13,06,10.10
2015,03,23,13,07,10.10
2015,03,23,13,08,10.20
2015,03,23,13,09,10.20
2015,03,23,13,10,10.20
2015,03,23,13,11,10.20
2015,03,23,13,12,10.20
2015,03,23,13,13,10.20
2015,03,23,13,14,10.20
2015,03,23,13,15,10.20
2015,03,23,13,16,10.20
2015,03,23,13,17,10.10
2015,03,23,13,18,10.10
2015,03,23,13,19,10.20
2015,03,23,13,20,10.20
2015,03,23,13,21,10.20
2015,03,23,13,22,10.20
2015,03,23,13,23,10.30
2015,03,23,13,24,10.30
2015,03,23,13,25,10.30
2015,03,23,13,26,10.30
2015,03,23,13,27,10.20
2015,03,23,13,28,10.20
2015,03,23,13,29,10.20
2015,03,23,13,30,10.10
2015,03,23,13,31,10.10
2015,03,23,13,32,10.00
2015,03,23,13,33,10.00
2015,03,23,13,34,9.90
2015,03,23,13,35,9.80
2015,03,23,13,36,9.70
2015,03,23,13,37,9.70
2015,03,23,13,38,9.80
2015,03,23,13,39,9.80
2015,03,23,13,40,9.80
2015,03,23,13,41,9.80
2015,03,23,13,42,9.80
2015,03,23,13,43,9.80
2015,03,23,13,44,9.80
2015,03,23,13,45,9.80
2015,03,23,13,46,9.80
2015,03,23,13,47,9.80
2015,03,23,13,48,9.80
2015,03,23,13,49,9.80
2015,03,23,13,50,9.70
2015,03,23,13,51,9.70
2015,03,23,13,52,9.70
2015,03,23,13,53,9.60
2015,03,23,13,54,9.70
2015,03,23,13,55,9.70
2015,03,23,13,56,9.70
2015,03,23,13,57,9.80
2015,03,23,13,58,9.80
2015,03,23,13,59,9.80
2015,03,23,14,00,9.80
2015,03,23,14,01,9.90
2015,03,23,14,02,9.90
2015,03,23,14,03,10.00
2015,03,23,14,04,10.00
2015,03,23,14,05,10.00
2015,03,23,14,06,9.90
2015,03,23,14,07,9.90
2015,03,23,14,08,9.90
2015,03,23,14,09,10.00
2015,03,23,14,10,10.00
2015,03,23,14,11,10.10
2015,03,23,14,12,10.10
2015,03,23,14,13,10.10
2015,03,23,14,14,10.10
2015,03,23,14,15,10.10
2015,03,23,14,16,10.20
2015,03,23,14,17,10.20
2015,03,23,14,18,10.20
2015,03,23,14,19,10.10
2015,03,23,14,20,10.10
2015,03,23,14,21,10.10
2015,03,23,14,22,10.10
2015,03,23,14,23,10.20
2015,03,23,14,24,10.20
2015,03,23,14,25,10.10
2015,03,23,14,26,10.10
2015,03,23,14,27,10.10
2015,03,23,14,28,10.10
2015,03,23,14,29,10.10
2015,03,23,14,30,10.10
2015,03,23,14,31,10.10
2015,03,23,14,32,10.00
2015,03,23,14,33,10.00
2015,03,23,14,34,10.00
2015,03,23,14,35,10.00
2015,03,23,14,36,9.90
2015,03,23,14,37,9.90
2015,03,23,14,38,9.90
2015,03,23,14,39,9.90
2015,03,23,14,40,9.80
2015,03,23,14,41,9.80
2015,03,23,14,42,9.80
2015,03,23,14,43,9.80
2015,03,23,14,44,9.80
2015,03,23,14,45,9.80
2015,03,23,14,46,9.80
2015,03,23,14,47,9.80
2015,03,23,14,48,9.80
2015,03,23,14,49,9.80
2015,03,23,14,50,9.80
2015,03,23,14,51,9.80
2015,03,23,14,52,9.80
2015,03,23,14,53,9.80
2015,03,23,14,54,9.80
2015,03,23,14,55,9.80
2015,03,23,15,11,9.80
2015,03,23,15,12,9.80
2015,03,23,15,13,9.80
2015,03,23,15,14,9.80
2015,03,23,15,15,9.80
2015,03,23,15,16,9.70
2015,03,23,15,17,9.70
2015,03,23,15,18,9.70
2015,03,23,15,19,9.70
2015,03,23,15,20,9.70
2015,03,23,15,21,9.70
2015,03,23,15,22,9.70
2015,03,23,15,23,9.70
2015,03,23,15,24,9.70
2015,03,23,15,25,9.70
2015,03,23,15,26,9.80
2015,03,23,15,27,9.80
2015,03,23,15,28,9.80
2015,03,23,15,29,9.80
2015,03,23,15,30,9.80
2015,03,23,15,31,9.80
2015,03,23,15,32,9.80
2015,03,23,15,33,9.80
2015,03,23,15,34,9.80
2015,03,23,15,35,9.80
2015,03,23,15,36,9.80
2015,03,23,15,37,9.80
2015,03,23,15,38,9.80
2015,03,23,15,39,9.80
2015,03,23,15,40,9.80
2015,03,23,15,41,9.80
2015,03,23,15,42,9.80
2015,03,23,15,43,9.80
2015,03,23,15,44,9.80
2015,03,23,15,45,9.80
2015,03,23,15,46,9.80
2015,03,23,15,47,9.80
2015,03,23,15,48,9.80
2015,03,23,15,49,9.80
2015,03,23,15,50,9.80
2015,03,23,15,51,9.80
2015,03,23,15,52,9.80
2015,03,23,15,53,9.80
2015,03,23,15,54,9.70
2015,03,23,15,55,9.70
2015,03,23,15,56,9.70
2015,03,23,15,57,9.70
2015,03,23,15,58,9.60
2015,03,23,15,59,9.60
2015,03,23,16,00,9.50
2015,03,23,16,01,9.50
2015,03,23,16,02,9.50
2015,03,23,16,03,9.40
2015,03,23,16,04,9.40
2015,03,23,16,05,9.30
2015,03,23,16,06,9.30
2015,03,23,16,07,9.30
2015,03,23,16,08,9.20
2015,03,23,16,09,9.20
2015,03,23,16,10,9.20
2015,03,23,16,11,9.20
2015,03,23,16,12,9.20
2015,03,23,16,13,9.20
2015,03,23,16,14,9.10
2015,03,23,16,15,9.10
2015,03,23,16,16,9.10
2015,03,23,16,17,9.10
2015,03,23,16,18,9.10
2015,03,23,16,19,9.10
2015,03,23,16,20,9.00
2015,03,23,16,21,9.00
2015,03,23,16,22,9.00
2015,03,23,16,23,9.00
2015,03,23,16,24,8.90
2015,03,23,16,25,8.90
2015,03,23,16,26,8.90
2015,03,23,16,27,8.90
2015,03,23,16,28,8.90
2015,03,23,16,29,8.90
2015,03,23,16,30,8.90
2015,03,23,16,31,8.90
2015,03,23,16,32,8.90
2015,03,23,16,33,8.90
2015,03,23,16,34,8.90
2015,03,23,16,35,8.90
2015,03,23,16,36,8.90
2015,03,23,16,37,8.90
